QPF
0.01 0.01 0.01 0.02 0.02 0.02 0.02 0.02 0.02 0.02 0.02 0.02 0.02 0.02 0.01 0.01 0.01 0.01 0.00 0.01 0.01 0.02 0.02 0.01 0.01 0.01 0.01 0.00 0.00 0.00 0.00 0.00 0.00 0.00 0.00 0.00 0.01 0.01 0.01 0.01 0.01 0.01 0.01
0.01 0.01 0.01 0.01 0.02 0.02 0.01 0.02 0.02 0.03 0.02 0.02 0.02 0.02 0.01 0.02 0.01 0.01 0.01 0.01 0.01 0.02 0.01 0.01 0.01 0.01 0.00 0.00 0.00 0.00 0.00 0.00 0.00 0.00 0.00 0.01 0.01 0.02 0.02 0.01 0.01 0.01 0.01
0.01 0.01 0.01 0.01 0.02 0.02 0.01 0.02 0.03 0.04 0.03 0.03 0.02 0.02 0.01 0.02 0.02 0.01 0.01 0.01 0.01 0.02 0.01 0.01 0.01 0.01 0.00 0.00 0.00 0.00 0.00 0.00 0.00 0.00 0.00 0.00 0.01 0.02 0.02 0.01 0.01 0.01 0.01
0.01 0.01 0.01 0.01 0.01 0.01 0.02 0.02 0.04 0.04 0.04 0.03 0.03 0.02 0.02 0.02 0.02 0.01 0.01 0.01 0.01 0.02 0.02 0.01 0.01 0.01 0.00 0.00 0.00 0.00 0.00 0.00 0.00 0.00 0.00 0.00 0.00 0.02 0.03 0.02 0.02 0.02 0.01
0.01 0.01 0.01 0.01 0.02 0.01 0.01 0.02 0.03 0.04 0.04 0.04 0.03 0.02 0.02 0.02 0.01 0.01 0.01 0.01 0.01 0.02 0.02 0.01 0.01 0.01 0.00 0.00 0.00 0.00 0.00 0.00 0.00 0.00 0.00 0.00 0.00 0.02 0.03 0.02 0.02 0.01 0.01
0.02 0.01 0.01 0.01 0.01 0.01 0.01 0.02 0.03 0.03 0.03 0.04 0.03 0.03 0.02 0.02 0.01 0.01 0.01 0.01 0.01 0.01 0.01 0.01 0.01 0.01 0.01 0.00 0.00 0.00 0.00 0.00 0.00 0.00 0.00 0.00 0.01 0.02 0.02 0.02 0.01 0.01 0.01
0.03 0.02 0.02 0.02 0.02 0.01 0.01 0.01 0.01 0.02 0.02 0.02 0.02 0.02 0.03 0.02 0.01 0.01 0.01 0.01 0.01 0.01 0.01 0.01 0.01 0.01 0.01 0.01 0.01 0.01 0.00 0.00 0.00 0.00 0.00 0.00 0.01 0.02 0.02 0.02 0.01 0.01 0.01
0.03 0.03 0.03 0.03 0.02 0.02 0.01 0.01 0.01 0.01 0.01 0.01 0.01 0.02 0.03 0.03 0.02 0.02 0.01 0.01 0.01 0.01 0.01 0.01 0.01 0.01 0.01 0.01 0.01 0.01 0.01 0.00 0.00 0.00 0.00 0.00 0.01 0.02 0.02 0.02 0.02 0.02 0.01
0.03 0.04 0.04 0.04 0.03 0.02 0.01 0.01 0.01 0.01 0.01 0.01 0.01 0.01 0.02 0.03 0.02 0.02 0.02 0.01 0.01 0.01 0.01 0.01 0.01 0.00 0.00 0.01 0.01 0.01 0.01 0.00 0.00 0.01 0.00 0.00 0.01 0.02 0.02 0.02 0.02 0.02 0.01
0.03 0.03 0.05 0.06 0.05 0.03 0.02 0.02 0.01 0.01 0.01 0.01 0.01 0.01 0.02 0.03 0.02 0.01 0.01 0.02 0.02 0.02 0.02 0.01 0.01 0.01 0.00 0.00 0.00 0.01 0.01 0.01 0.01 0.00 0.00 0.00 0.01 0.01 0.01 0.01 0.01 0.01 0.01
0.03 0.03 0.04 0.05 0.06 0.05 0.03 0.02 0.02 0.02 0.01 0.01 0.00 0.01 0.01 0.02 0.02 0.01 0.01 0.01 0.02 0.02 0.02 0.02 0.02 0.01 0.01 0.00 0.00 0.01 0.01 0.01 0.00 0.00 0.00 0.00 0.01 0.01 0.01 0.01 0.01 0.01 0.01
0.02 0.02 0.03 0.06 0.07 0.06 0.03 0.01 0.02 0.02 0.02 0.01 0.01 0.01 0.01 0.02 0.02 0.01 0.01 0.01 0.01 0.01 0.02 0.02 0.02 0.01 0.01 0.01 0.01 0.02 0.01 0.01 0.00 0.00 0.00 0.01 0.01 0.01 0.01 0.01 0.01 0.01 0.01
0.02 0.03 0.04 0.06 0.08 0.08 0.07 0.03 0.02 0.02 0.02 0.02 0.02 0.02 0.02 0.02 0.02 0.01 0.01 0.01 0.02 0.01 0.01 0.01 0.01 0.01 0.01 0.01 0.02 0.02 0.02 0.02 0.01 0.01 0.01 0.01 0.01 0.02 0.02 0.02 0.02 0.02 0.02
0.02 0.03 0.05 0.06 0.08 0.09 0.09 0.06 0.04 0.02 0.02 0.02 0.02 0.02 0.02 0.02 0.03 0.02 0.02 0.02 0.03 0.03 0.02 0.01 0.01 0.01 0.01 0.01 0.01 0.01 0.02 0.02 0.02 0.02 0.02 0.02 0.01 0.02 0.03 0.04 0.04 0.03 0.02
0.02 0.03 0.04 0.06 0.08 0.09 0.09 0.07 0.04 0.02 0.02 0.02 0.02 0.02 0.02 0.02 0.03 0.02 0.03 0.03 0.04 0.05 0.02 0.01 0.01 0.00 0.00 0.01 0.01 0.01 0.01 0.01 0.01 0.01 0.01 0.02 0.01 0.02 0.03 0.04 0.04 0.04 0.03
0.03 0.03 0.04 0.07 0.08 0.10 0.11 0.08 0.04 0.02 0.02 0.01 0.01 0.01 0.01 0.02 0.04 0.04 0.03 0.03 0.04 0.03 0.01 0.01 0.01 0.00 0.00 0.00 0.00 0.00 0.00 0.00 0.01 0.01 0.01 0.01 0.01 0.02 0.02 0.02 0.03 0.04 0.04
0.03 0.03 0.03 0.06 0.09 0.11 0.10 0.08 0.05 0.04 0.03 0.02 0.02 0.02 0.02 0.02 0.03 0.05 0.03 0.03 0.04 0.03 0.02 0.02 0.01 0.00 0.00 0.00 0.00 0.00 0.00 0.00 0.00 0.00 0.01 0.01 0.01 0.02 0.02 0.02 0.02 0.03 0.03
0.04 0.03 0.03 0.06 0.09 0.10 0.09 0.08 0.05 0.05 0.04 0.03 0.03 0.03 0.04 0.04 0.04 0.04 0.03 0.03 0.03 0.03 0.04 0.05 0.03 0.01 0.00 0.00 0.00 0.00 0.00 0.00 0.00 0.00 0.00 0.01 0.01 0.01 0.01 0.01 0.01 0.01 0.02
0.07 0.05 0.04 0.06 0.09 0.09 0.06 0.06 0.04 0.04 0.04 0.03 0.03 0.03 0.03 0.04 0.03 0.02 0.02 0.02 0.03 0.04 0.05 0.06 0.06 0.04 0.03 0.02 0.01 0.00 0.00 0.00 0.01 0.01 0.01 0.01 0.01 0.01 0.01 0.01 0.01 0.01 0.02
0.06 0.07 0.06 0.06 0.06 0.07 0.05 0.03 0.03 0.03 0.04 0.04 0.04 0.05 0.03 0.02 0.03 0.03 0.02 0.02 0.03 0.04 0.06 0.08 0.09 0.07 0.05 0.04 0.04 0.03 0.02 0.01 0.01 0.01 0.01 0.01 0.01 0.01 0.01 0.01 0.01 0.02 0.03
0.04 0.06 0.06 0.04 0.03 0.04 0.03 0.02 0.02 0.02 0.03 0.04 0.04 0.05 0.06 0.05 0.04 0.03 0.03 0.03 0.04 0.05 0.05 0.06 0.08 0.08 0.06 0.04 0.04 0.03 0.02 0.02 0.01 0.01 0.01 0.01 0.01 0.01 0.01 0.01 0.01 0.01 0.02
0.03 0.04 0.06 0.05 0.04 0.02 0.02 0.02 0.02 0.02 0.02 0.01 0.02 0.03 0.04 0.05 0.04 0.04 0.04 0.04 0.04 0.05 0.07 0.06 0.06 0.05 0.05 0.04 0.03 0.03 0.03 0.03 0.02 0.02 0.02 0.02 0.02 0.02 0.02 0.01 0.02 0.01 0.01
0.03 0.03 0.05 0.06 0.05 0.03 0.02 0.02 0.02 0.01 0.01 0.01 0.01 0.01 0.02 0.03 0.03 0.03 0.03 0.04 0.05 0.06 0.07 0.06 0.07 0.07 0.06 0.06 0.05 0.04 0.03 0.03 0.02 0.02 0.01 0.01 0.01 0.01 0.01 0.02 0.01 0.01 0.01
0.02 0.03 0.04 0.05 0.06 0.06 0.04 0.03 0.02 0.01 0.01 0.01 0.01 0.02 0.02 0.01 0.02 0.02 0.03 0.04 0.04 0.05 0.07 0.08 0.07 0.06 0.05 0.05 0.05 0.04 0.03 0.02 0.02 0.02 0.01 0.01 0.01 0.01 0.01 0.01 0.01 0.01 0.01
0.03 0.03 0.03 0.04 0.04 0.05 0.07 0.06 0.04 0.03 0.02 0.02 0.02 0.01 0.01 0.01 0.01 0.01 0.02 0.03 0.04 0.04 0.04 0.05 0.06 0.04 0.04 0.03 0.03 0.03 0.02 0.02 0.02 0.01 0.01 0.01 0.01 0.01 0.02 0.02 0.02 0.02 0.02
0.02 0.02 0.02 0.03 0.03 0.03 0.04 0.05 0.06 0.07 0.05 0.04 0.04 0.02 0.01 0.01 0.00 0.00 0.01 0.01 0.02 0.03 0.03 0.04 0.05 0.04 0.03 0.03 0.02 0.02 0.02 0.01 0.01 0.01 0.01 0.01 0.02 0.02 0.02 0.02 0.02 0.02 0.02
MSLP
1031.36 1031.12 1030.61 1029.90 1029.15 1028.46 1027.90 1027.50 1027.21 1026.98 1026.74 1026.44 1026.07 1025.63 1025.18 1024.77 1024.43 1024.19 1024.03 1023.91 1023.80 1023.64 1023.42 1023.14 1022.82 1022.49 1022.19 1021.93 1021.71 1021.51 1021.31 1021.07 1020.80 1020.49 1020.17 1019.86 1019.59 1019.38 1019.22 1019.11 1019.01 1018.90 1018.76
1031.66 1031.37 1030.81 1030.11 1029.39 1028.75 1028.26 1027.92 1027.69 1027.51 1027.32 1027.06 1026.72 1026.33 1025.92 1025.54 1025.23 1025.01 1024.86 1024.73 1024.59 1024.40 1024.14 1023.82 1023.46 1023.10 1022.76 1022.46 1022.21 1021.98 1021.74 1021.49 1021.20 1020.89 1020.56 1020.26 1019.99 1019.78 1019.62 1019.49 1019.37 1019.23 1019.06
1031.99 1031.62 1031.02 1030.31 1029.63 1029.04 1028.62 1028.34 1028.18 1028.05 1027.91 1027.69 1027.40 1027.04 1026.67 1026.33 1026.04 1025.82 1025.65 1025.49 1025.31 1025.07 1024.76 1024.39 1023.99 1023.60 1023.24 1022.93 1022.67 1022.44 1022.21 1021.97 1021.69 1021.40 1021.09 1020.80 1020.55 1020.34 1020.18 1020.04 1019.90 1019.74 1019.54
1032.30 1031.86 1031.24 1030.55 1029.91 1029.39 1029.03 1028.81 1028.70 1028.61 1028.49 1028.31 1028.04 1027.72 1027.38 1027.06 1026.78 1026.55 1026.35 1026.14 1025.90 1025.60 1025.24 1024.83 1024.41 1024.01 1023.65 1023.36 1023.12 1022.92 1022.72 1022.51 1022.28 1022.01 1021.74 1021.47 1021.23 1021.04 1020.87 1020.73 1020.58 1020.42 1020.21
1032.56 1032.09 1031.49 1030.85 1030.28 1029.83 1029.53 1029.36 1029.26 1029.18 1029.07 1028.88 1028.62 1028.32 1028.00 1027.69 1027.41 1027.16 1026.93 1026.67 1026.38 1026.03 1025.62 1025.19 1024.76 1024.36 1024.03 1023.78 1023.58 1023.43 1023.29 1023.13 1022.94 1022.72 1022.48 1022.23 1022.01 1021.81 1021.65 1021.50 1021.36 1021.19 1020.99
1032.74 1032.29 1031.75 1031.21 1030.73 1030.37 1030.13 1029.98 1029.88 1029.77 1029.62 1029.41 1029.13 1028.82 1028.50 1028.20 1027.93 1027.67 1027.41 1027.12 1026.79 1026.40 1025.97 1025.53 1025.11 1024.74 1024.46 1024.25 1024.11 1024.02 1023.93 1023.82 1023.67 1023.48 1023.26 1023.03 1022.80 1022.60 1022.43 1022.28 1022.14 1021.98 1021.79
1032.82 1032.44 1032.01 1031.59 1031.24 1030.98 1030.79 1030.65 1030.52 1030.36 1030.15 1029.89 1029.58 1029.26 1028.94 1028.65 1028.38 1028.12 1027.86 1027.55 1027.20 1026.80 1026.37 1025.94 1025.55 1025.22 1024.98 1024.82 1024.73 1024.68 1024.64 1024.57 1024.45 1024.27 1024.06 1023.82 1023.58 1023.35 1023.16 1022.99 1022.85 1022.70 1022.54
1032.79 1032.52 1032.23 1031.98 1031.77 1031.61 1031.47 1031.33 1031.16 1030.94 1030.66 1030.34 1030.00 1029.67 1029.36 1029.08 1028.83 1028.59 1028.34 1028.04 1027.69 1027.30 1026.88 1026.48 1026.11 1025.82 1025.62 1025.50 1025.45 1025.43 1025.40 1025.34 1025.23 1025.05 1024.82 1024.56 1024.29 1024.03 1023.80 1023.60 1023.44 1023.30 1023.16
1032.68 1032.54 1032.41 1032.32 1032.25 1032.19 1032.10 1031.97 1031.76 1031.48 1031.15 1030.79 1030.44 1030.11 1029.82 1029.58 1029.36 1029.14 1028.91 1028.62 1028.29 1027.92 1027.53 1027.15 1026.82 1026.56 1026.38 1026.28 1026.23 1026.21 1026.18 1026.12 1025.99 1025.80 1025.55 1025.26 1024.94 1024.64 1024.36 1024.12 1023.92 1023.76 1023.63
1032.54 1032.51 1032.53 1032.59 1032.64 1032.67 1032.62 1032.49 1032.27 1031.97 1031.61 1031.25 1030.90 1030.60 1030.36 1030.16 1029.98 1029.79 1029.58 1029.31 1028.99 1028.64 1028.27 1027.91 1027.60 1027.36 1027.19 1027.09 1027.03 1026.99 1026.94 1026.86 1026.71 1026.50 1026.23 1025.91 1025.56 1025.21 1024.87 1024.57 1024.32 1024.13 1023.99
1032.40 1032.47 1032.61 1032.77 1032.92 1033.01 1033.00 1032.88 1032.66 1032.35 1032.02 1031.69 1031.39 1031.15 1030.96 1030.81 1030.67 1030.51 1030.31 1030.05 1029.74 1029.39 1029.04 1028.70 1028.40 1028.16 1027.99 1027.87 1027.79 1027.72 1027.65 1027.54 1027.38 1027.16 1026.88 1026.54 1026.17 1025.78 1025.39 1025.03 1024.72 1024.47 1024.30
1032.30 1032.44 1032.64 1032.87 1033.07 1033.19 1033.20 1033.10 1032.89 1032.63 1032.34 1032.08 1031.86 1031.70 1031.58 1031.48 1031.37 1031.22 1031.02 1030.76 1030.44 1030.10 1029.75 1029.42 1029.14 1028.90 1028.71 1028.57 1028.46 1028.36 1028.26 1028.14 1027.97 1027.76 1027.50 1027.17 1026.80 1026.39 1025.97 1025.55 1025.18 1024.87 1024.63
1032.25 1032.42 1032.65 1032.90 1033.10 1033.22 1033.24 1033.14 1032.97 1032.76 1032.56 1032.38 1032.26 1032.19 1032.14 1032.08 1031.99 1031.85 1031.64 1031.36 1031.04 1030.70 1030.35 1030.03 1029.75 1029.51 1029.31 1029.15 1029.01 1028.89 1028.77 1028.65 1028.50 1028.32 1028.09 1027.81 1027.46 1027.06 1026.63 1026.18 1025.75 1025.36 1025.05
1032.24 1032.41 1032.63 1032.86 1033.04 1033.13 1033.13 1033.05 1032.91 1032.77 1032.65 1032.57 1032.54 1032.55 1032.56 1032.54 1032.46 1032.31 1032.09 1031.80 1031.47 1031.13 1030.80 1030.50 1030.24 1030.00 1029.80 1029.62 1029.47 1029.33 1029.20 1029.08 1028.96 1028.83 1028.66 1028.43 1028.14 1027.78 1027.36 1026.90 1026.43 1025.98 1025.60
1032.22 1032.38 1032.58 1032.76 1032.89 1032.94 1032.92 1032.84 1032.74 1032.66 1032.62 1032.63 1032.68 1032.75 1032.81 1032.81 1032.73 1032.57 1032.34 1032.05 1031.73 1031.42 1031.12 1030.85 1030.61 1030.40 1030.20 1030.02 1029.85 1029.69 1029.56 1029.46 1029.37 1029.28 1029.18 1029.03 1028.81 1028.51 1028.13 1027.68 1027.19 1026.71 1026.27
1032.12 1032.28 1032.45 1032.59 1032.67 1032.69 1032.65 1032.57 1032.50 1032.47 1032.49 1032.57 1032.67 1032.78 1032.86 1032.87 1032.79 1032.64 1032.41 1032.14 1031.86 1031.59 1031.35 1031.13 1030.94 1030.75 1030.57 1030.38 1030.20 1030.04 1029.90 1029.80 1029.73 1029.69 1029.64 1029.56 1029.41 1029.18 1028.85 1028.44 1027.97 1027.47 1027.00
1031.89 1032.05 1032.21 1032.33 1032.39 1032.39 1032.34 1032.29 1032.25 1032.25 1032.32 1032.43 1032.56 1032.68 1032.76 1032.77 1032.69 1032.55 1032.35 1032.13 1031.91 1031.71 1031.54 1031.39 1031.25 1031.11 1030.94 1030.76 1030.57 1030.39 1030.24 1030.13 1030.07 1030.04 1030.03 1029.99 1029.90 1029.73 1029.47 1029.11 1028.68 1028.21 1027.73
1031.48 1031.66 1031.83 1031.96 1032.03 1032.04 1032.02 1032.00 1032.00 1032.04 1032.12 1032.25 1032.38 1032.49 1032.55 1032.55 1032.49 1032.38 1032.23 1032.07 1031.94 1031.83 1031.75 1031.68 1031.60 1031.49 1031.35 1031.18 1030.98 1030.78 1030.60 1030.47 1030.39 1030.35 1030.34 1030.32 1030.26 1030.14 1029.93 1029.64 1029.26 1028.84 1028.39
1030.88 1031.10 1031.30 1031.46 1031.57 1031.64 1031.67 1031.70 1031.75 1031.83 1031.93 1032.05 1032.16 1032.25 1032.30 1032.29 1032.24 1032.17 1032.09 1032.02 1031.99 1031.98 1031.98 1031.99 1031.97 1031.90 1031.78 1031.60 1031.40 1031.18 1030.98 1030.82 1030.70 1030.63 1030.59 1030.56 1030.50 1030.40 1030.23 1029.99 1029.69 1029.33 1028.94
1030.11 1030.36 1030.61 1030.83 1031.01 1031.15 1031.27 1031.38 1031.50 1031.61 1031.73 1031.84 1031.93 1031.99 1032.01 1032.01 1031.98 1031.96 1031.96 1031.99 1032.05 1032.13 1032.22 1032.29 1032.31 1032.28 1032.17 1032.01 1031.80 1031.58 1031.36 1031.17 1031.02 1030.90 1030.82 1030.74 1030.66 1030.54 1030.39 1030.19 1029.95 1029.66 1029.34
1029.22 1029.50 1029.79 1030.07 1030.33 1030.57 1030.79 1030.99 1031.18 1031.34 1031.48 1031.58 1031.65 1031.68 1031.70 1031.70 1031.71 1031.75 1031.83 1031.94 1032.09 1032.26 1032.41 1032.52 1032.58 1032.57 1032.48 1032.33 1032.14 1031.93 1031.72 1031.52 1031.34 1031.18 1031.04 1030.91 1030.77 1030.62 1030.46 1030.28 1030.09 1029.87 1029.62
1028.27 1028.56 1028.87 1029.20 1029.53 1029.87 1030.19 1030.49 1030.75 1030.97 1031.13 1031.23 1031.29 1031.31 1031.32 1031.34 1031.39 1031.49 1031.64 1031.84 1032.06 1032.29 1032.48 1032.63 1032.71 1032.71 1032.65 1032.53 1032.38 1032.20 1032.03 1031.85 1031.67 1031.49 1031.30 1031.11 1030.91 1030.70 1030.51 1030.32 1030.15 1029.98 1029.79
1027.33 1027.59 1027.90 1028.25 1028.64 1029.05 1029.45 1029.83 1030.17 1030.44 1030.63 1030.74 1030.80 1030.82 1030.83 1030.88 1030.98 1031.14 1031.36 1031.63 1031.91 1032.17 1032.40 1032.56 1032.64 1032.66 1032.63 1032.56 1032.47 1032.37 1032.26 1032.14 1031.99 1031.82 1031.60 1031.36 1031.09 1030.82 1030.57 1030.36 1030.18 1030.03 1029.89
1026.45 1026.66 1026.94 1027.28 1027.68 1028.12 1028.58 1029.02 1029.41 1029.73 1029.94 1030.07 1030.14 1030.17 1030.21 1030.29 1030.43 1030.66 1030.94 1031.26 1031.59 1031.88 1032.12 1032.29 1032.38 1032.42 1032.43 1032.42 1032.41 1032.40 1032.39 1032.36 1032.28 1032.14 1031.92 1031.65 1031.33 1031.00 1030.68 1030.42 1030.21 1030.05 1029.92
1025.66 1025.80 1026.01 1026.31 1026.68 1027.13 1027.61 1028.08 1028.50 1028.84 1029.09 1029.23 1029.31 1029.36 1029.42 1029.54 1029.74 1030.02 1030.36 1030.74 1031.10 1031.42 1031.67 1031.84 1031.95 1032.01 1032.06 1032.12 1032.21 1032.31 1032.41 1032.48 1032.49 1032.41 1032.22 1031.93 1031.58 1031.20 1030.82 1030.50 1030.24 1030.05 1029.90
1024.94 1025.02 1025.15 1025.37 1025.70 1026.11 1026.58 1027.05 1027.49 1027.84 1028.09 1028.25 1028.34 1028.41 1028.51 1028.66 1028.91 1029.24 1029.64 1030.06 1030.47 1030.81 1031.08 1031.26 1031.39 1031.48 1031.57 1031.70 1031.87 1032.08 1032.29 1032.47 1032.58 1032.57 1032.42 1032.15 1031.79 1031.37 1030.95 1030.57 1030.25 1030.01 1029.83
Thickness
5661 5662 5664 5665 5667 5668 5668 5669 5669 5669 5670 5670 5670 5671 5671 5671 5671 5671 5671 5671 5671 5671 5671 5671 5671 5671 5670 5670 5670 5670 5669 5669 5669 5669 5669 5669 5668 5668 5668 5668 5667 5667 5668
5660 5661 5661 5662 5664 5664 5665 5666 5666 5666 5666 5666 5667 5667 5667 5668 5667 5667 5667 5667 5667 5667 5667 5667 5667 5667 5666 5666 5665 5665 5665 5665 5664 5664 5664 5664 5663 5664 5663 5663 5663 5663 5663
5658 5658 5659 5659 5660 5661 5662 5662 5662 5662 5662 5662 5663 5663 5663 5663 5664 5663 5663 5663 5663 5663 5663 5663 5663 5662 5662 5661 5661 5660 5660 5660 5659 5659 5659 5658 5658 5658 5658 5658 5658 5658 5658
5654 5654 5655 5656 5656 5657 5657 5658 5658 5658 5658 5658 5658 5658 5658 5659 5659 5659 5659 5659 5659 5659 5659 5658 5658 5657 5657 5656 5656 5656 5655 5655 5654 5654 5653 5653 5653 5653 5653 5652 5652 5652 5652
5650 5650 5650 5651 5652 5652 5653 5653 5653 5653 5653 5653 5654 5654 5654 5654 5654 5654 5654 5654 5654 5654 5654 5653 5653 5653 5652 5652 5651 5651 5650 5650 5649 5648 5647 5647 5647 5647 5647 5646 5645 5645 5645
5645 5645 5645 5646 5647 5647 5648 5648 5648 5648 5648 5648 5648 5648 5648 5648 5649 5649 5649 5649 5649 5649 5648 5648 5647 5647 5647 5647 5646 5645 5645 5644 5643 5642 5641 5641 5641 5641 5640 5640 5639 5638 5638
5639 5639 5640 5640 5641 5642 5642 5643 5643 5643 5643 5643 5643 5643 5643 5643 5643 5643 5643 5644 5643 5643 5643 5642 5642 5641 5641 5641 5640 5640 5639 5638 5637 5636 5635 5635 5634 5634 5634 5633 5632 5632 5631
5633 5633 5634 5634 5635 5636 5636 5636 5637 5637 5637 5637 5637 5637 5637 5637 5637 5638 5638 5638 5637 5637 5637 5636 5636 5635 5635 5634 5634 5633 5632 5631 5630 5630 5629 5628 5627 5627 5627 5626 5625 5624 5624
5627 5627 5627 5628 5629 5629 5630 5630 5631 5631 5631 5631 5631 5631 5631 5631 5631 5631 5631 5631 5631 5631 5630 5630 5629 5629 5628 5627 5627 5626 5625 5624 5623 5622 5621 5620 5620 5620 5619 5618 5618 5617 5616
5620 5620 5621 5621 5622 5623 5624 5624 5624 5625 5625 5625 5625 5625 5625 5625 5625 5625 5625 5625 5624 5624 5624 5623 5622 5622 5621 5620 5619 5619 5618 5617 5616 5615 5613 5613 5612 5612 5611 5610 5609 5608 5608
5613 5614 5615 5615 5616 5617 5618 5618 5618 5618 5618 5618 5618 5619 5619 5619 5619 5619 5618 5618 5618 5617 5617 5616 5615 5615 5614 5613 5612 5611 5610 5608 5607 5606 5605 5604 5604 5604 5603 5602 5601 5600 5598
5606 5606 5607 5609 5609 5611 5612 5612 5612 5612 5611 5611 5612 5612 5612 5612 5612 5612 5612 5611 5611 5610 5610 5609 5608 5607 5606 5605 5604 5603 5601 5599 5599 5597 5596 5596 5596 5596 5594 5593 5591 5590 5589
5599 5599 5601 5602 5604 5605 5605 5606 5605 5605 5604 5604 5605 5606 5605 5605 5605 5605 5605 5604 5604 5603 5603 5602 5601 5599 5598 5596 5595 5594 5592 5590 5589 5588 5587 5587 5587 5586 5585 5583 5582 5580 5579
5593 5594 5595 5596 5598 5598 5599 5599 5599 5599 5598 5598 5599 5599 5599 5598 5598 5597 5597 5597 5597 5596 5595 5594 5593 5591 5590 5588 5587 5585 5583 5581 5580 5578 5577 5577 5577 5576 5575 5573 5571 5569 5568
5587 5588 5589 5590 5592 5592 5593 5593 5594 5593 5592 5592 5592 5592 5592 5591 5591 5590 5589 5589 5589 5588 5587 5586 5585 5583 5581 5580 5578 5576 5574 5572 5570 5569 5567 5566 5565 5565 5564 5563 5561 5559 5557
5582 5582 5584 5585 5585 5586 5587 5587 5588 5587 5587 5586 5585 5585 5584 5584 5584 5583 5582 5582 5581 5581 5580 5578 5577 5575 5573 5571 5569 5567 5565 5563 5561 5559 5557 5556 5554 5553 5552 5551 5550 5548 5546
5577 5577 5578 5580 5580 5581 5581 5581 5581 5581 5580 5579 5578 5578 5578 5577 5576 5575 5574 5574 5573 5572 5571 5570 5568 5566 5564 5562 5560 5558 5556 5554 5551 5549 5547 5544 5543 5541 5540 5538 5537 5536 5535
5572 5572 5573 5574 5574 5575 5575 5574 5575 5575 5574 5572 5571 5571 5571 5570 5569 5568 5567 5566 5565 5564 5563 5562 5561 5558 5555 5552 5550 5547 5545 5543 5541 5538 5536 5533 5531 5529 5527 5526 5524 5523 5522
5568 5568 5568 5569 5569 5569 5569 5569 5569 5568 5567 5565 5564 5563 5563 5562 5561 5560 5559 5558 5557 5556 5555 5553 5551 5549 5545 5543 5540 5537 5535 5533 5530 5528 5525 5522 5520 5517 5515 5513 5511 5510 5509
5564 5564 5564 5564 5564 5564 5563 5563 5562 5561 5559 5558 5557 5556 5555 5554 5553 5552 5551 5550 5549 5547 5546 5544 5542 5539 5536 5534 5531 5527 5525 5522 5520 5517 5514 5511 5508 5506 5503 5500 5498 5496 5494
5559 5560 5560 5560 5559 5558 5557 5556 5554 5553 5552 5551 5550 5548 5547 5546 5545 5544 5542 5541 5539 5538 5537 5535 5532 5528 5525 5523 5520 5516 5514 5512 5510 5507 5503 5499 5496 5493 5490 5488 5485 5482 5480
5556 5556 5556 5556 5555 5553 5552 5551 5549 5548 5545 5544 5542 5540 5539 5537 5536 5535 5534 5532 5531 5529 5527 5525 5523 5519 5515 5513 5510 5506 5502 5501 5499 5496 5492 5488 5484 5481 5478 5475 5472 5469 5467
5553 5553 5553 5551 5549 5548 5546 5545 5543 5540 5538 5536 5534 5532 5530 5529 5528 5527 5525 5524 5522 5520 5518 5516 5514 5512 5508 5503 5501 5497 5493 5490 5485 5484 5480 5476 5473 5469 5466 5462 5459 5457 5454
5551 5549 5548 5545 5544 5542 5540 5538 5536 5534 5531 5529 5527 5525 5523 5521 5519 5518 5517 5515 5513 5511 5510 5508 5505 5502 5499 5495 5490 5487 5484 5480 5474 5471 5468 5465 5461 5457 5453 5450 5447 5444 5441
5548 5545 5542 5540 5538 5536 5535 5532 5530 5528 5525 5522 5520 5517 5515 5513 5511 5509 5508 5507 5505 5503 5501 5499 5496 5493 5490 5486 5481 5477 5472 5468 5463 5458 5457 5453 5448 5445 5441 5438 5435 5432 5429
5543 5540 5537 5535 5533 5531 5529 5527 5524 5522 5519 5515 5513 5510 5508 5506 5504 5502 5501 5499 5498 5495 5493 5490 5487 5484 5481 5477 5472 5468 5463 5458 5453 5448 5445 5441 5438 5435 5431 5428 5424 5421 5417